COSMOS 2463 [+]

Last updated on July 6, 2021, 3:40 p.m. UTC

1 36519U 10017A   21186.95522671  .00000049  00000-0  36658-4 0  9993
2 36519  82.9602 137.3228 0037704 103.3367 257.1995 13.71457571560294
UTC
Height (km)
Latitude
Longitude
Inclination
Orbital Period
UTC large
Height (km)
Speed (km/s)
/
Latitude / Longitude
Inclination (degrees)
Orbital Period (minutes)
Azimuth
Elevation
Range (km)
Doppler Factor
iOS Compass Heading
iOS Angle